| time (UTC) | temp C | wind direction | speed KPH | gust KPH | rain 1hr cm | rain 24hr cm | rain mn cm | humidity % | barometer mb |
| 20260506192903 | 13 | 279 | 3.2 | 4.8 | 0.00 | 0.20 | 0.20 | 99 | 1034.4 |
| 20260506192400 | 13 | 293 | 3.2 | 3.2 | 0.00 | 0.20 | 0.20 | 99 | 1034.5 |
| 20260506191856 | 13 | 278 | 3.2 | 4.8 | 0.00 | 0.20 | 0.20 | 99 | 1034.4 |
| 20260506191353 | 13 | 197 | 0.0 | 4.8 | 0.00 | 0.20 | 0.20 | 99 | 1034.5 |
| 20260506190850 | 13 | 187 | 3.2 | 6.4 | 0.00 | 0.20 | 0.20 | 99 | 1034.5 |
| 20260506190346 | 13 | 264 | 0.0 | 6.4 | 0.05 | 0.20 | 0.20 | 99 | 1034.8 |
| 20260506185843 | 13 | 219 | 3.2 | 6.4 | 0.05 | 0.20 | 0.20 | 99 | 1034.6 |
| 20260506185340 | 13 | 274 | 4.8 | 8.0 | 0.00 | 0.20 | 0.20 | 99 | 1034.6 |
| 20260506184837 | 13 | 250 | 3.2 | 8.0 | 0.00 | 0.20 | 0.20 | 99 | 1034.7 |
| 20260506184334 | 13 | 271 | 4.8 | 6.4 | 0.00 | 0.20 | 0.20 | 99 | 1034.8 |
| 20260506183831 | 13 | 278 | 1.6 | 8.0 | 0.00 | 0.20 | 0.20 | 99 | 1034.8 |
| 20260506183326 | 13 | 274 | 3.2 | 6.4 | 0.05 | 0.20 | 0.20 | 99 | 1035.0 |
| 20260506182824 | 13 | 199 | 0.0 | 6.4 | 0.13 | 0.20 | 0.20 | 99 | 1035.0 |
| 20260506182321 | 13 | 249 | 3.2 | 6.4 | 0.23 | 0.18 | 0.18 | 99 | 1035.3 |
| 20260506181819 | 13 | 267 | 0.0 | 8.0 | 0.18 | 0.15 | 0.15 | 99 | 1035.4 |
| 20260506181316 | 13 | 315 | 3.2 | 9.7 | 0.18 | 0.15 | 0.15 | 99 | 1035.3 |
| 20260506180813 | 13 | 247 | 8.0 | 8.0 | 0.18 | 0.13 | 0.13 | 98 | 1035.3 |
| 20260506180309 | 13 | 279 | 3.2 | 6.4 | 0.18 | 0.13 | 0.13 | 98 | 1035.4 |
| 20260506175805 | 13 | 285 | 3.2 | 4.8 | 0.13 | 0.10 | 0.10 | 98 | 1035.2 |
| 20260506175305 | 13 | 257 | 6.4 | 8.0 | 0.05 | 0.10 | 0.10 | 98 | 1035.2 |
| 20260506174800 | 13 | 266 | 6.4 | 8.0 | 0.05 | 0.08 | 0.08 | 97 | 1035.0 |
| 20260506174257 | 13 | 248 | 3.2 | 11.3 | 0.05 | 0.08 | 0.08 | 97 | 1035.4 |
| 20260506173754 | 13 | 264 | 4.8 | 4.8 | 0.23 | 0.08 | 0.08 | 97 | 1035.2 |
| 20260506173251 | 13 | 188 | 3.2 | 4.8 | 0.13 | 0.05 | 0.05 | 96 | 1035.3 |
| 20260506172748 | 13 | 222 | 0.0 | 4.8 | 0.13 | 0.03 | 0.03 | 96 | 1035.5 |
| 20260506172244 | 13 | 224 | 0.0 | 6.4 | 0.13 | 0.03 | 0.03 | 94 | 1035.7 |
| 20260506171742 | 14 | 354 | 1.6 | 8.0 | 0.00 | 0.00 | 0.00 | 93 | 1035.8 |
| 20260506171239 | 14 | 113 | 0.0 | 3.2 | 0.00 | 0.00 | 0.00 | 93 | 1036.1 |
| 20260506170737 | 14 | 160 | 0.0 | 8.0 | 0.00 | 0.00 | 0.00 | 91 | 1036.5 |
| 20260506170233 | 14 | 202 | 0.0 | 3.2 | 0.00 | 0.00 | 0.00 | 90 | 1036.6 |
| 20260506165732 | 15 | 169 | 1.6 | 6.4 | 0.00 | 0.00 | 0.00 | 90 | 1036.4 |
| 20260506165228 | 15 | 295 | 0.0 | 4.8 | 0.00 | 0.00 | 0.00 | 89 | 1036.4 |
| 20260506164726 | 15 | 243 | 4.8 | 9.7 | 0.00 | 0.00 | 0.00 | 89 | 1036.4 |
| 20260506164222 | 15 | 343 | 3.2 | 6.4 | 0.00 | 0.00 | 0.00 | 88 | 1036.3 |
| 20260506163719 | 15 | 201 | 3.2 | 12.9 | 0.00 | 0.00 | 0.00 | 88 | 1036.5 |
| 20260506163214 | 15 | 34 | 4.8 | 4.8 | 0.00 | 0.00 | 0.00 | 87 | 1036.5 |
| 20260506162710 | 15 | 243 | 3.2 | 6.4 | 0.00 | 0.00 | 0.00 | 86 | 1036.3 |
| 20260506162208 | 15 | 205 | 0.0 | 6.4 | 0.00 | 0.00 | 0.00 | 86 | 1036.3 |
| 20260506161705 | 16 | 211 | 4.8 | 6.4 | 0.00 | 0.00 | 0.00 | 86 | 1036.3 |
| 20260506161202 | 16 | 311 | 0.0 | 0.0 | 0.00 | 0.00 | 0.00 | 84 | 1036.6 |
| 20260506160659 | 16 | 192 | 3.2 | 6.4 | 0.00 | 0.00 | 0.00 | 85 | 1036.5 |
| 20260506160156 | 16 | 17 | 3.2 | 6.4 | 0.00 | 0.00 | 0.00 | 84 | 1036.6 |
| 20260506155655 | 16 | 306 | 3.2 | 8.0 | 0.00 | 0.00 | 0.00 | 82 | 1036.7 |
| 20260506155151 | 17 | 149 | 1.6 | 3.2 | 0.00 | 0.00 | 0.00 | 82 | 1036.7 |
| 20260506153253 | 16 | 252 | 6.4 | 9.7 | 0.00 | 0.00 | 0.00 | 82 | 1037.0 |
| 20260506152750 | 16 | 254 | 3.2 | 4.8 | 0.00 | 0.00 | 0.00 | 82 | 1037.1 |
| 20260506152248 | 16 | 234 | 0.0 | 6.4 | 0.00 | 0.00 | 0.00 | 82 | 1036.8 |
| 20260506151747 | 16 | 297 | 4.8 | 6.4 | 0.00 | 0.00 | 0.00 | 82 | 1036.8 |
| 20260506151243 | 17 | 171 | 4.8 | 6.4 | 0.00 | 0.00 | 0.00 | 82 | 1036.7 |
| 20260506150739 | 16 | 233 | 4.8 | 6.4 | 0.00 | 0.00 | 0.00 | 82 | 1036.7 |
| 20260506150237 | 16 | 238 | 8.0 | 9.7 | 0.00 | 0.00 | 0.00 | 81 | 1036.7 |
| 20260506145733 | 17 | 259 | 4.8 | 11.3 | 0.00 | 0.00 | 0.00 | 81 | 1036.7 |
| 20260506145230 | 17 | 274 | 1.6 | 8.0 | 0.00 | 0.00 | 0.00 | 80 | 1036.8 |
| 20260506144727 | 17 | 342 | 0.0 | 6.4 | 0.00 | 0.00 | 0.00 | 79 | 1036.7 |
| 20260506144224 | 17 | 314 | 1.6 | 6.4 | 0.00 | 0.00 | 0.00 | 80 | 1036.7 |
| 20260506143721 | 17 | 238 | 9.7 | 9.7 | 0.00 | 0.00 | 0.00 | 79 | 1036.7 |
| 20260506143219 | 17 | 236 | 0.0 | 6.4 | 0.00 | 0.00 | 0.00 | 80 | 1036.9 |
| 20260506142718 | 17 | 209 | 11.3 | 12.9 | 0.00 | 0.00 | 0.00 | 79 | 1037.0 |
| 20260506142215 | 18 | 275 | 1.6 | 6.4 | 0.00 | 0.00 | 0.00 | 79 | 1037.0 |
| 20260506141713 | 17 | 205 | 6.4 | 6.4 | 0.00 | 0.00 | 0.00 | 79 | 1036.9 |
| 20260506141211 | 18 | 234 | 4.8 | 9.7 | 0.00 | 0.00 | 0.00 | 77 | 1036.9 |
| 20260506140709 | 17 | 190 | 1.6 | 6.4 | 0.00 | 0.00 | 0.00 | 79 | 1036.8 |
| 20260506140205 | 17 | 309 | 1.6 | 8.0 | 0.00 | 0.00 | 0.00 | 79 | 1036.7 |
| 20260506135702 | 17 | 200 | 3.2 | 9.7 | 0.00 | 0.00 | 0.00 | 81 | 1037.1 |
| 20260506135158 | 17 | 256 | 4.8 | 6.4 | 0.00 | 0.00 | 0.00 | 81 | 1036.9 |
| 20260506134655 | 17 | 207 | 3.2 | 14.5 | 0.00 | 0.00 | 0.00 | 82 | 1036.9 |
| 20260506134151 | 17 | 244 | 6.4 | 8.0 | 0.00 | 0.00 | 0.00 | 81 | 1036.9 |
| 20260506133648 | 16 | 214 | 4.8 | 8.0 | 0.00 | 0.00 | 0.00 | 83 | 1036.7 |
| 20260506133145 | 16 | 309 | 6.4 | 9.7 | 0.00 | 0.00 | 0.00 | 83 | 1036.9 |
| 20260506132643 | 16 | 277 | 4.8 | 12.9 | 0.00 | 0.00 | 0.00 | 83 | 1036.7 |
| 20260506132139 | 16 | 191 | 1.6 | 3.2 | 0.00 | 0.00 | 0.00 | 84 | 1036.7 |
| 20260506131637 | 16 | 294 | 3.2 | 9.7 | 0.00 | 0.00 | 0.00 | 84 | 1036.9 |
| 20260506131133 | 16 | 15 | 3.2 | 6.4 | 0.00 | 0.00 | 0.00 | 85 | 1036.6 |
| 20260506130630 | 16 | 241 | 3.2 | 9.7 | 0.00 | 0.00 | 0.00 | 85 | 1036.8 |
| 20260506130127 | 16 | 204 | 6.4 | 9.7 | 0.00 | 0.00 | 0.00 | 86 | 1036.7 |
| 20260506125625 | 16 | 244 | 6.4 | 9.7 | 0.00 | 0.00 | 0.00 | 85 | 1036.7 |
| 20260506125123 | 16 | 202 | 3.2 | 6.4 | 0.00 | 0.00 | 0.00 | 86 | 1037.0 |
| 20260506124620 | 16 | 212 | 0.0 | 6.4 | 0.00 | 0.00 | 0.00 | 86 | 1037.1 |
| 20260506124118 | 16 | 279 | 6.4 | 6.4 | 0.00 | 0.00 | 0.00 | 86 | 1037.0 |
| 20260506123616 | 16 | 303 | 6.4 | 6.4 | 0.00 | 0.00 | 0.00 | 85 | 1037.1 |
| 20260506123114 | 16 | 224 | 3.2 | 9.7 | 0.00 | 0.00 | 0.00 | 85 | 1037.3 |
| 20260506122610 | 16 | 216 | 6.4 | 8.0 | 0.00 | 0.00 | 0.00 | 86 | 1037.5 |
| 20260506122108 | 16 | 262 | 1.6 | 6.4 | 0.00 | 0.00 | 0.00 | 87 | 1037.5 |
| 20260506121606 | 16 | 218 | 0.0 | 3.2 | 0.00 | 0.00 | 0.00 | 87 | 1037.3 |
| 20260506121102 | 15 | 311 | 4.8 | 6.4 | 0.00 | 0.00 | 0.00 | 87 | 1037.3 |
| 20260506120600 | 15 | 359 | 0.0 | 4.8 | 0.00 | 0.00 | 0.00 | 89 | 1037.3 |
| 20260506120057 | 15 | 201 | 3.2 | 6.4 | 0.00 | 0.00 | 0.00 | 89 | 1037.3 |
| 20260506115555 | 15 | 57 | 1.6 | 6.4 | 0.00 | 0.00 | 0.00 | 90 | 1037.3 |
| 20260506115053 | 15 | 251 | 4.8 | 8.0 | 0.00 | 0.00 | 0.00 | 90 | 1037.3 |
| 20260506114550 | 14 | 114 | 0.0 | 3.2 | 0.00 | 0.00 | 0.00 | 92 | 1037.2 |
| 20260506114048 | 14 | 197 | 3.2 | 6.4 | 0.00 | 0.00 | 0.00 | 92 | 1037.0 |
| 20260506113546 | 14 | 283 | 0.0 | 6.4 | 0.00 | 0.00 | 0.00 | 92 | 1037.3 |
| 20260506113043 | 14 | 222 | 3.2 | 9.7 | 0.00 | 0.00 | 0.00 | 92 | 1037.1 |
| 20260506112539 | 13 | 189 | 6.4 | 6.4 | 0.00 | 0.00 | 0.00 | 93 | 1037.4 |
| 20260506112037 | 13 | 251 | 4.8 | 8.0 | 0.00 | 0.00 | 0.00 | 94 | 1037.2 |
| 20260506111535 | 13 | 322 | 3.2 | 4.8 | 0.00 | 0.00 | 0.00 | 95 | 1037.1 |
| 20260506111032 | 13 | 35 | 0.0 | 4.8 | 0.00 | 0.00 | 0.00 | 95 | 1037.4 |
| 20260506110530 | 13 | 311 | 4.8 | 4.8 | 0.00 | 0.00 | 0.00 | 95 | 1037.5 |
| 20260506110027 | 13 | 291 | 0.0 | 6.4 | 0.00 | 0.00 | 0.00 | 96 | 1037.2 |
| 20260506105522 | 12 | 247 | 3.2 | 6.4 | 0.00 | 0.00 | 0.00 | 96 | 1037.3 |
| 20260506105020 | 12 | 297 | 0.0 | 3.2 | 0.00 | 0.00 | 0.00 | 96 | 1037.3 |
| 20260506104518 | 12 | 247 | 3.2 | 8.0 | 0.00 | 0.00 | 0.00 | 96 | 1037.1 |
| 20260506104016 | 12 | 264 | 0.0 | 8.0 | 0.00 | 0.00 | 0.00 | 97 | 1037.1 |
| 20260506103513 | 12 | 243 | 3.2 | 8.0 | 0.00 | 0.00 | 0.00 | 97 | 1037.3 |
| 20260506103009 | 12 | 308 | 3.2 | 4.8 | 0.00 | 0.00 | 0.00 | 97 | 1037.2 |
| 20260506102508 | 12 | 287 | 0.0 | 3.2 | 0.00 | 0.00 | 0.00 | 98 | 1037.4 |
| 20260506102005 | 12 | 304 | 4.8 | 6.4 | 0.00 | 0.00 | 0.00 | 98 | 1037.2 |
| 20260506101501 | 11 | 36 | 3.2 | 6.4 | 0.00 | 0.00 | 0.00 | 98 | 1037.2 |
| 20260506100958 | 11 | 244 | 1.6 | 6.4 | 0.00 | 0.00 | 0.00 | 98 | 1037.2 |
| 20260506100457 | 11 | 262 | 3.2 | 3.2 | 0.00 | 0.00 | 0.00 | 98 | 1037.2 |
| 20260506095954 | 11 | 275 | 0.0 | 4.8 | 0.00 | 0.00 | 0.00 | 98 | 1037.2 |
| 20260506095453 | 11 | 262 | 4.8 | 6.4 | 0.00 | 0.00 | 0.00 | 98 | 1037.1 |
| 20260506094948 | 11 | 33 | 1.6 | 6.4 | 0.00 | 0.00 | 0.00 | 98 | 1037.0 |
| 20260506094447 | 11 | 228 | 1.6 | 4.8 | 0.00 | 0.00 | 0.00 | 97 | 1037.0 |
| 20260506093944 | 12 | 43 | 0.0 | 6.4 | 0.00 | 0.00 | 0.00 | 97 | 1037.1 |
| 20260506093442 | 12 | 314 | 4.8 | 4.8 | 0.00 | 0.00 | 0.00 | 97 | 1037.1 |
| 20260506092940 | 12 | 312 | 1.6 | 4.8 | 0.00 | 0.00 | 0.00 | 97 | 1037.0 |
| 20260506092437 | 12 | 289 | 4.8 | 6.4 | 0.00 | 0.00 | 0.00 | 97 | 1037.1 |
| 20260506091934 | 12 | 329 | 3.2 | 6.4 | 0.00 | 0.00 | 0.00 | 96 | 1037.2 |
| 20260506091432 | 12 | 301 | 3.2 | 4.8 | 0.00 | 0.00 | 0.00 | 96 | 1037.2 |
| 20260506090929 | 12 | 98 | 0.0 | 6.4 | 0.00 | 0.00 | 0.00 | 96 | 1037.1 |
| 20260506090426 | 12 | 312 | 4.8 | 8.0 | 0.00 | 0.00 | 0.00 | 96 | 1037.3 |
| 20260506085923 | 12 | 142 | 0.0 | 6.4 | 0.00 | 0.00 | 0.00 | 96 | 1037.4 |
| 20260506085420 | 12 | 22 | 1.6 | 6.4 | 0.00 | 0.00 | 0.00 | 96 | 1037.2 |
| 20260506084916 | 12 | 13 | 3.2 | 6.4 | 0.00 | 0.00 | 0.00 | 96 | 1037.2 |
| 20260506084413 | 12 | 299 | 3.2 | 6.4 | 0.00 | 0.00 | 0.00 | 95 | 1037.4 |
| 20260506083909 | 12 | 332 | 0.0 | 8.0 | 0.00 | 0.00 | 0.00 | 95 | 1037.4 |
| 20260506083407 | 12 | 314 | 4.8 | 4.8 | 0.00 | 0.00 | 0.00 | 95 | 1037.2 |
| 20260506082904 | 12 | 279 | 4.8 | 4.8 | 0.00 | 0.00 | 0.00 | 95 | 1037.4 |
| 20260506082401 | 12 | 294 | 3.2 | 4.8 | 0.00 | 0.00 | 0.00 | 95 | 1037.4 |
| 20260506081856 | 12 | 281 | 3.2 | 4.8 | 0.00 | 0.00 | 0.00 | 95 | 1037.4 |
| 20260506081355 | 12 | 319 | 3.2 | 4.8 | 0.00 | 0.00 | 0.00 | 94 | 1037.3 |
| 20260506080852 | 12 | 290 | 1.6 | 4.8 | 0.00 | 0.00 | 0.00 | 94 | 1037.1 |
| 20260506080349 | 12 | 357 | 4.8 | 4.8 | 0.00 | 0.00 | 0.00 | 94 | 1037.2 |
| 20260506073333 | 12 | 266 | 6.4 | 6.4 | 0.00 | 0.00 | 0.00 | 93 | 1037.6 |
| 20260506072829 | 12 | 264 | 3.2 | 6.4 | 0.00 | 0.00 | 0.00 | 93 | 1037.4 |
| 20260506072327 | 12 | 282 | 3.2 | 4.8 | 0.00 | 0.00 | 0.00 | 92 | 1037.5 |
| 20260506071825 | 12 | 211 | 0.0 | 4.8 | 0.00 | 0.00 | 0.00 | 92 | 1037.5 |
| 20260506071323 | 12 | 304 | 6.4 | 6.4 | 0.00 | 0.00 | 0.00 | 92 | 1037.4 |
| 20260506070819 | 12 | 311 | 3.2 | 4.8 | 0.00 | 0.00 | 0.00 | 92 | 1037.4 |
| 20260506070316 | 12 | 298 | 3.2 | 6.4 | 0.00 | 0.00 | 0.00 | 92 | 1037.4 |
| 20260506062253 | 13 | 260 | 1.6 | 4.8 | 0.00 | 0.00 | 0.00 | 89 | 1037.3 |
| 20260506061749 | 13 | 315 | 3.2 | 4.8 | 0.00 | 0.00 | 0.00 | 88 | 1037.3 |
| 20260506061247 | 13 | 205 | 3.2 | 6.4 | 0.00 | 0.00 | 0.00 | 87 | 1037.4 |
| 20260506060745 | 13 | 237 | 6.4 | 8.0 | 0.00 | 0.00 | 0.00 | 87 | 1037.3 |
| 20260506060242 | 13 | 337 | 1.6 | 4.8 | 0.00 | 0.00 | 0.00 | 87 | 1037.4 |
| 20260506051214 | 15 | 280 | 3.2 | 9.7 | 0.00 | 0.00 | 0.00 | 84 | 1037.7 |
| 20260506050712 | 15 | 317 | 1.6 | 4.8 | 0.00 | 0.00 | 0.00 | 84 | 1037.9 |
| 20260506050209 | 15 | 251 | 4.8 | 6.4 | 0.00 | 0.00 | 0.00 | 84 | 1037.9 |
| 20260506044700 | 15 | 288 | 4.8 | 4.8 | 0.00 | 0.00 | 0.00 | 83 | 1037.9 |
| 20260506044157 | 15 | 279 | 3.2 | 6.4 | 0.00 | 0.00 | 0.00 | 83 | 1037.9 |
| 20260506043654 | 15 | 291 | 3.2 | 4.8 | 0.00 | 0.00 | 0.00 | 82 | 1037.9 |
| 20260506043152 | 15 | 249 | 3.2 | 6.4 | 0.00 | 0.00 | 0.00 | 82 | 1038.1 |
| 20260506042651 | 15 | 297 | 6.4 | 9.7 | 0.00 | 0.00 | 0.00 | 81 | 1037.8 |
| 20260506042149 | 15 | 294 | 1.6 | 4.8 | 0.00 | 0.00 | 0.00 | 81 | 1037.7 |
| 20260506041652 | 15 | 333 | 3.2 | 6.4 | 0.00 | 0.00 | 0.00 | 80 | 1037.8 |
| 20260506041143 | 15 | 260 | 4.8 | 4.8 | 0.00 | 0.00 | 0.00 | 79 | 1038.0 |
| 20260506040641 | 15 | 301 | 8.0 | 8.0 | 0.00 | 0.00 | 0.00 | 79 | 1037.6 |
| 20260506040138 | 15 | 171 | 3.2 | 6.4 | 0.00 | 0.00 | 0.00 | 79 | 1038.0 |
| 20260506035635 | 15 | 250 | 4.8 | 6.4 | 0.00 | 0.00 | 0.00 | 78 | 1038.0 |
| 20260506035131 | 15 | 305 | 4.8 | 6.4 | 0.00 | 0.00 | 0.00 | 77 | 1038.0 |
| 20260506034623 | 15 | 210 | 4.8 | 8.0 | 0.00 | 0.00 | 0.00 | 77 | 1037.9 |
| 20260506034120 | 15 | 318 | 6.4 | 8.0 | 0.00 | 0.00 | 0.00 | 78 | 1037.9 |
| 20260506033617 | 15 | 265 | 4.8 | 4.8 | 0.00 | 0.00 | 0.00 | 77 | 1037.9 |
| 20260506033114 | 15 | 223 | 3.2 | 8.0 | 0.00 | 0.00 | 0.00 | 77 | 1037.9 |
| 20260506032612 | 15 | 228 | 3.2 | 6.4 | 0.00 | 0.00 | 0.00 | 77 | 1037.9 |
| 20260506032108 | 15 | 228 | 4.8 | 6.4 | 0.00 | 0.00 | 0.00 | 77 | 1037.9 |
| 20260506031605 | 15 | 305 | 4.8 | 4.8 | 0.00 | 0.00 | 0.00 | 77 | 1037.7 |
| 20260506031101 | 15 | 263 | 4.8 | 4.8 | 0.00 | 0.00 | 0.00 | 77 | 1037.9 |
| 20260506030600 | 15 | 250 | 3.2 | 6.4 | 0.00 | 0.00 | 0.00 | 76 | 1037.9 |
| 20260506030057 | 15 | 167 | 1.6 | 6.4 | 0.00 | 0.00 | 0.00 | 76 | 1038.0 |
| 20260506025554 | 15 | 253 | 4.8 | 6.4 | 0.00 | 0.00 | 0.00 | 76 | 1037.9 |
| 20260506025050 | 16 | 293 | 3.2 | 8.0 | 0.00 | 0.00 | 0.00 | 75 | 1037.8 |
| 20260506024548 | 16 | 279 | 4.8 | 6.4 | 0.00 | 0.00 | 0.00 | 75 | 1037.7 |
| 20260506024044 | 15 | 291 | 4.8 | 4.8 | 0.00 | 0.00 | 0.00 | 76 | 1037.8 |
| 20260506023540 | 16 | 289 | 3.2 | 8.0 | 0.00 | 0.00 | 0.00 | 74 | 1037.8 |
| 20260506023038 | 16 | 248 | 6.4 | 9.7 | 0.00 | 0.00 | 0.00 | 75 | 1037.8 |
| 20260506022535 | 16 | 315 | 4.8 | 9.7 | 0.00 | 0.00 | 0.00 | 75 | 1037.6 |
| 20260506022033 | 16 | 281 | 4.8 | 6.4 | 0.00 | 0.00 | 0.00 | 75 | 1037.9 |
| 20260506021530 | 16 | 342 | 3.2 | 4.8 | 0.00 | 0.00 | 0.00 | 75 | 1037.6 |
| 20260506021027 | 16 | 198 | 3.2 | 4.8 | 0.00 | 0.00 | 0.00 | 74 | 1037.6 |
| 20260506020525 | 16 | 84 | 3.2 | 6.4 | 0.00 | 0.00 | 0.00 | 74 | 1037.7 |
| 20260506020021 | 16 | 257 | 8.0 | 9.7 | 0.00 | 0.00 | 0.00 | 73 | 1037.5 |
| 20260506015518 | 15 | 241 | 4.8 | 6.4 | 0.00 | 0.00 | 0.00 | 74 | 1037.6 |
| 20260506015015 | 16 | 317 | 4.8 | 4.8 | 0.00 | 0.00 | 0.00 | 74 | 1037.5 |
| 20260506014513 | 16 | 240 | 3.2 | 6.4 | 0.00 | 0.00 | 0.00 | 74 | 1037.6 |
| 20260506014008 | 16 | 296 | 4.8 | 6.4 | 0.00 | 0.00 | 0.00 | 74 | 1037.7 |
| 20260506013507 | 16 | 329 | 3.2 | 6.4 | 0.00 | 0.00 | 0.00 | 74 | 1037.5 |
| 20260506013003 | 16 | 278 | 4.8 | 9.7 | 0.00 | 0.00 | 0.00 | 73 | 1037.3 |
| 20260506012459 | 16 | 202 | 0.0 | 4.8 | 0.00 | 0.00 | 0.00 | 73 | 1037.4 |
| 20260506011956 | 16 | 319 | 1.6 | 6.4 | 0.00 | 0.00 | 0.00 | 72 | 1037.3 |
| 20260506011453 | 16 | 289 | 4.8 | 6.4 | 0.00 | 0.00 | 0.00 | 72 | 1037.2 |
| 20260506010950 | 16 | 261 | 6.4 | 19.3 | 0.00 | 0.00 | 0.00 | 72 | 1037.1 |
| 20260506010449 | 16 | 257 | 3.2 | 6.4 | 0.00 | 0.00 | 0.00 | 72 | 1037.1 |
| 20260506005945 | 16 | 306 | 3.2 | 6.4 | 0.00 | 0.00 | 0.00 | 70 | 1037.1 |
| 20260506005444 | 16 | 325 | 3.2 | 6.4 | 0.00 | 0.00 | 0.00 | 70 | 1037.0 |
| 20260506004944 | 16 | 344 | 1.6 | 4.8 | 0.00 | 0.00 | 0.00 | 70 | 1037.0 |
| 20260506004442 | 16 | 358 | 4.8 | 6.4 | 0.00 | 0.00 | 0.00 | 69 | 1036.7 |
| 20260506003938 | 16 | 262 | 3.2 | 9.7 | 0.00 | 0.00 | 0.00 | 69 | 1036.7 |
| 20260506003435 | 16 | 285 | 4.8 | 8.0 | 0.00 | 0.00 | 0.00 | 68 | 1036.7 |
| 20260506002931 | 17 | 277 | 8.0 | 9.7 | 0.00 | 0.00 | 0.00 | 67 | 1036.6 |
| 20260506002427 | 17 | 342 | 8.0 | 9.7 | 0.00 | 0.00 | 0.00 | 67 | 1036.5 |
| 20260506001922 | 17 | 289 | 3.2 | 4.8 | 0.00 | 0.00 | 0.00 | 68 | 1036.6 |
| 20260506001420 | 17 | 237 | 1.6 | 9.7 | 0.00 | 0.00 | 0.00 | 67 | 1036.5 |
| 20260506000917 | 17 | 24 | 0.0 | 3.2 | 0.00 | 0.00 | 0.00 | 67 | 1036.4 |
| 20260506000416 | 17 | 239 | 3.2 | 8.0 | 0.00 | 0.00 | 0.00 | 67 | 1036.5 |
| 20260505235911 | 17 | 282 | 4.8 | 9.7 | 0.00 | 0.00 | 0.00 | 66 | 1036.3 |
| 20260505235409 | 17 | 197 | 3.2 | 4.8 | 0.00 | 0.00 | 0.00 | 67 | 1036.3 |
| 20260505234906 | 17 | 6 | 0.0 | 4.8 | 0.00 | 0.00 | 0.00 | 67 | 1036.3 |
| 20260505234403 | 17 | 198 | 3.2 | 6.4 | 0.00 | 0.00 | 0.00 | 66 | 1036.3 |
| 20260505233900 | 17 | 326 | 4.8 | 9.7 | 0.00 | 0.00 | 0.00 | 67 | 1036.2 |
| 20260505233358 | 17 | 279 | 3.2 | 8.0 | 0.00 | 0.00 | 0.00 | 66 | 1036.3 |
| 20260505232855 | 18 | 249 | 6.4 | 9.7 | 0.00 | 0.00 | 0.00 | 66 | 1036.1 |
| 20260505232353 | 18 | 260 | 1.6 | 6.4 | 0.00 | 0.00 | 0.00 | 66 | 1036.1 |
| 20260505231849 | 18 | 245 | 6.4 | 8.0 | 0.00 | 0.00 | 0.00 | 65 | 1035.7 |
| 20260505231347 | 18 | 230 | 6.4 | 9.7 | 0.00 | 0.00 | 0.00 | 65 | 1035.7 |
| 20260505230845 | 18 | 29 | 1.6 | 6.4 | 0.00 | 0.00 | 0.00 | 65 | 1035.9 |
| 20260505230342 | 18 | 184 | 4.8 | 16.1 | 0.00 | 0.00 | 0.00 | 64 | 1035.6 |
| 20260505225839 | 18 | 262 | 3.2 | 6.4 | 0.00 | 0.00 | 0.00 | 64 | 1035.8 |
| 20260505225336 | 18 | 247 | 4.8 | 11.3 | 0.00 | 0.00 | 0.00 | 64 | 1035.7 |
| 20260505224830 | 18 | 243 | 6.4 | 11.3 | 0.00 | 0.00 | 0.00 | 64 | 1035.8 |
| 20260505224329 | 18 | 241 | 14.5 | 16.1 | 0.00 | 0.00 | 0.00 | 63 | 1035.5 |
| 20260505223826 | 19 | 226 | 8.0 | 9.7 | 0.00 | 0.00 | 0.00 | 63 | 1035.6 |
| 20260505223323 | 19 | 269 | 6.4 | 9.7 | 0.00 | 0.00 | 0.00 | 63 | 1035.8 |
| 20260505222818 | 19 | 306 | 4.8 | 11.3 | 0.00 | 0.00 | 0.00 | 63 | 1035.8 |
| 20260505222314 | 19 | 263 | 9.7 | 14.5 | 0.00 | 0.00 | 0.00 | 63 | 1035.9 |
| 20260505221812 | 19 | 319 | 3.2 | 8.0 | 0.00 | 0.00 | 0.00 | 62 | 1035.8 |
| 20260505221308 | 20 | 209 | 6.4 | 6.4 | 0.00 | 0.00 | 0.00 | 63 | 1035.7 |
| 20260505220806 | 20 | 171 | 3.2 | 9.7 | 0.00 | 0.00 | 0.00 | 62 | 1035.8 |
| 20260505220303 | 20 | 269 | 1.6 | 8.0 | 0.00 | 0.00 | 0.00 | 63 | 1035.7 |
| 20260505215801 | 20 | 223 | 9.7 | 11.3 | 0.00 | 0.00 | 0.00 | 62 | 1035.7 |
| 20260505215258 | 20 | 309 | 6.4 | 9.7 | 0.00 | 0.00 | 0.00 | 62 | 1035.8 |
| 20260505214756 | 20 | 272 | 6.4 | 6.4 | 0.00 | 0.00 | 0.00 | 62 | 1035.6 |
| 20260505214253 | 20 | 210 | 3.2 | 12.9 | 0.00 | 0.00 | 0.00 | 62 | 1035.4 |
| 20260505213750 | 20 | 68 | 1.6 | 9.7 | 0.00 | 0.00 | 0.00 | 62 | 1035.6 |
| 20260505213248 | 20 | 237 | 3.2 | 8.0 | 0.00 | 0.00 | 0.00 | 62 | 1035.4 |
| 20260505212743 | 21 | 228 | 8.0 | 11.3 | 0.00 | 0.00 | 0.00 | 61 | 1035.5 |
| 20260505212241 | 20 | 280 | 4.8 | 4.8 | 0.00 | 0.00 | 0.00 | 61 | 1035.5 |
| 20260505211738 | 21 | 222 | 8.0 | 19.3 | 0.00 | 0.00 | 0.00 | 60 | 1035.2 |
| 20260505211235 | 21 | 250 | 6.4 | 9.7 | 0.00 | 0.00 | 0.00 | 60 | 1035.3 |
| 20260505210731 | 20 | 215 | 3.2 | 9.7 | 0.00 | 0.00 | 0.00 | 60 | 1035.4 |
| 20260505210228 | 20 | 220 | 4.8 | 6.4 | 0.00 | 0.00 | 0.00 | 60 | 1035.6 |
| 20260505205726 | 20 | 207 | 9.7 | 16.1 | 0.00 | 0.00 | 0.00 | 60 | 1035.4 |
| 20260505205224 | 21 | 277 | 3.2 | 4.8 | 0.00 | 0.00 | 0.00 | 59 | 1035.4 |
| 20260505204720 | 21 | 285 | 3.2 | 8.0 | 0.00 | 0.00 | 0.00 | 60 | 1035.5 |
| 20260505204218 | 21 | 251 | 6.4 | 12.9 | 0.00 | 0.00 | 0.00 | 59 | 1035.4 |
| 20260505203715 | 21 | 217 | 4.8 | 11.3 | 0.00 | 0.00 | 0.00 | 59 | 1035.5 |
| 20260505203212 | 21 | 258 | 4.8 | 8.0 | 0.00 | 0.00 | 0.00 | 57 | 1035.4 |
| 20260505202707 | 21 | 216 | 8.0 | 9.7 | 0.00 | 0.00 | 0.00 | 57 | 1035.6 |
| 20260505202204 | 21 | 259 | 6.4 | 11.3 | 0.00 | 0.00 | 0.00 | 56 | 1035.3 |
| 20260505201700 | 22 | 224 | 4.8 | 16.1 | 0.00 | 0.00 | 0.00 | 56 | 1035.6 |
| 20260505201158 | 22 | 232 | 6.4 | 14.5 | 0.00 | 0.00 | 0.00 | 56 | 1035.6 |
| 20260505200656 | 22 | 235 | 6.4 | 17.7 | 0.00 | 0.00 | 0.00 | 55 | 1035.5 |
| 20260505200153 | 22 | 200 | 8.0 | 9.7 | 0.00 | 0.00 | 0.00 | 55 | 1035.7 |
| 20260505195648 | 22 | 236 | 6.4 | 17.7 | 0.00 | 0.00 | 0.00 | 55 | 1035.7 |
| 20260505195146 | 23 | 261 | 4.8 | 11.3 | 0.00 | 0.00 | 0.00 | 53 | 1035.8 |
| 20260505194643 | 22 | 71 | 4.8 | 16.1 | 0.00 | 0.00 | 0.00 | 56 | 1035.8 |
| 20260505194139 | 22 | 217 | 3.2 | 17.7 | 0.00 | 0.00 | 0.00 | 55 | 1035.7 |
| 20260505193636 | 22 | 296 | 6.4 | 14.5 | 0.00 | 0.00 | 0.00 | 56 | 1035.8 |